SDT,��Ԑ��ʗ��i��Gy/h�j,�����ʗ��i��Gy/h),�~�J��i�����j,���J��,�����l�i��Gy/h�j,����l�i��Gy/h�j,�ߋ��̍ő�l�i��Gy/h�j
20120401010000,2.509,2.204,0.0,,0.036,0.057,0.101
20120401020000,2.51,2.203,0.0,,,,
20120401030000,2.509,2.203,0.0,,,,
20120401040000,2.507,2.2,0.0,,,,
20120401050000,2.506,2.201,0.0,,,,
20120401060000,2.504,2.199,0.0,,,,
20120401070000,2.508,2.199,0.0,,,,
20120401080000,2.513,2.203,0.0,,,,
20120401090000,2.519,2.208,0.0,,,,
20120401100000,2.525,2.215,0.0,,,,
20120401110000,2.529,2.218,0.0,,,,
20120401120000,2.532,2.221,0.0,,,,
20120401130000,2.533,2.222,0.0,,,,
20120401140000,2.534,2.224,0.0,,,,
20120401150000,2.531,2.224,0.0,,,,
20120401160000,2.516,2.209,1.0,,,,
20120401170000,2.523,2.215,0.0,,,,
20120401180000,2.522,2.213,0.0,,,,
20120401190000,2.519,2.212,0.0,,,,
20120401200000,2.519,2.211,0.0,,,,
20120401210000,2.52,2.213,0.0,,,,
20120401220000,2.516,2.21,0.0,,,,
20120401230000,2.516,2.207,0.0,,,,
20120402000000,2.514,2.205,0.0,,,,
20120402010000,2.514,2.202,0.0,,,,
20120402020000,2.514,2.203,0.0,,,,
20120402030000,2.514,2.202,0.0,,,,
20120402040000,2.512,2.203,0.0,,,,
20120402050000,2.512,2.2,0.0,,,,
20120402060000,2.509,2.198,0.0,,,,
20120402070000,2.511,2.201,0.0,,,,
20120402080000,2.517,2.206,0.0,,,,
20120402090000,2.523,2.21,0.0,,,,
20120402100000,2.528,2.214,0.0,,,,
20120402110000,2.533,2.219,0.0,,,,
20120402120000,2.537,2.222,0.0,,,,
20120402130000,2.539,2.227,0.0,,,,
20120402140000,2.541,2.229,0.0,,,,
20120402150000,2.541,2.228,0.0,,,,
20120402160000,2.537,2.226,0.0,,,,
20120402170000,2.537,2.227,0.0,,,,
20120402180000,2.535,2.228,0.0,,,,
20120402190000,2.534,2.227,0.0,,,,
20120402200000,2.53,2.223,0.0,,,,
20120402210000,2.529,2.222,0.0,,,,
20120402220000,2.528,2.22,0.0,,,,
20120402230000,2.528,2.219,0.0,,,,
20120403000000,2.528,2.219,0.0,,,,
20120403010000,2.528,2.218,0.0,,,,
20120403020000,2.528,2.221,0.0,,,,
20120403030000,2.529,2.221,0.0,,,,
20120403040000,2.529,2.22,0.0,,,,
20120403050000,2.527,2.22,0.0,,,,
20120403060000,2.527,2.219,0.0,,,,
20120403070000,2.529,2.219,0.0,,,,
20120403080000,2.533,2.221,0.0,,,,
20120403090000,2.542,2.23,0.0,,,,
20120403100000,2.545,2.234,0.0,,,,
20120403110000,2.55,2.237,0.0,,,,
20120403120000,2.551,2.239,0.0,,,,
20120403130000,2.549,2.239,0.0,,,,
20120403140000,2.55,2.241,0.0,,,,
20120403150000,2.55,2.241,0.0,,,,
20120403160000,2.55,2.241,0.0,,,,
20120403170000,2.55,2.242,0.0,,,,
20120403180000,2.539,2.235,0.0,,,,
20120403190000,2.524,2.223,2.5,,,,
20120403200000,2.484,2.187,8.0,,,,
20120403210000,2.465,2.169,5.5,,,,
20120403220000,2.43,2.137,7.5,,,,
20120403230000,2.44,2.141,2.0,,,,
20120404000000,2.468,2.166,0.0,,,,
20120404010000,2.465,2.166,0.0,,,,
20120404020000,2.464,2.165,0.0,,,,
20120404030000,2.463,2.164,0.0,,,,
20120404040000,2.462,2.161,0.0,,,,
20120404050000,2.464,2.162,0.0,,,,
20120404060000,2.462,2.16,0.0,,,,
20120404070000,2.462,2.162,0.0,,,,
20120404080000,2.466,2.163,0.0,,,,
20120404090000,2.469,2.165,0.0,,,,
20120404100000,2.473,2.167,0.0,,,,
20120404110000,2.474,2.169,0.0,,,,
20120404120000,2.479,2.174,0.0,,,,
20120404130000,2.48,2.175,0.0,,,,
20120404140000,2.48,2.177,0.0,,,,
20120404150000,2.481,2.178,0.0,,,,
20120404160000,2.48,2.178,0.0,,,,
20120404170000,2.481,2.177,0.0,,,,
20120404180000,2.479,2.178,0.0,,,,
20120404190000,2.478,2.176,0.0,,,,
20120404200000,2.478,2.175,0.0,,,,
20120404210000,2.479,2.173,0.0,,,,
20120404220000,2.479,2.175,0.0,,,,
20120404230000,2.476,2.173,0.0,,,,
20120405000000,2.476,2.168,0.0,,,,
20120405010000,2.473,2.166,0.0,,,,
20120405020000,2.474,2.167,0.0,,,,
20120405030000,2.473,2.167,0.0,,,,
20120405040000,2.473,2.166,0.0,,,,
20120405050000,2.476,2.169,0.0,,,,
20120405060000,2.483,2.174,0.0,,,,
20120405070000,2.484,2.176,0.0,,,,
20120405080000,2.487,2.178,0.0,,,,
20120405090000,2.491,2.182,0.0,,,,
20120405100000,2.493,2.181,0.0,,,,
20120405110000,2.495,2.184,0.0,,,,
20120405120000,2.495,2.188,0.0,,,,
20120405130000,2.496,2.19,0.0,,,,
20120405140000,2.495,2.193,0.0,,,,
20120405150000,2.498,2.188,0.0,,,,
20120405160000,2.495,2.191,0.0,,,,
20120405170000,2.496,2.192,0.0,,,,
20120405180000,2.493,2.188,0.0,,,,
20120405190000,2.49,2.186,0.0,,,,
20120405200000,2.49,2.184,0.0,,,,
20120405210000,2.485,2.181,0.0,,,,
20120405220000,2.485,2.18,0.0,,,,
20120405230000,2.481,2.179,0.0,,,,
20120406000000,2.482,2.177,0.0,,,,
20120406010000,2.482,2.177,0.0,,,,
20120406020000,2.485,2.179,0.0,,,,
20120406030000,2.483,2.177,0.0,,,,
20120406040000,2.481,2.176,0.0,,,,
20120406050000,2.48,2.174,0.0,,,,
20120406060000,2.48,2.174,0.0,,,,
20120406070000,2.482,2.175,0.0,,,,
20120406080000,2.486,2.177,0.0,,,,
20120406090000,2.492,2.182,0.0,,,,
20120406100000,2.497,2.186,0.0,,,,
20120406110000,2.499,2.19,0.0,,,,
20120406120000,2.497,2.189,0.0,,,,
20120406130000,2.5,2.192,0.0,,,,
20120406140000,2.501,2.194,0.0,,,,
20120406150000,2.498,2.194,0.0,,,,
20120406160000,2.496,2.193,0.0,,,,
20120406170000,2.495,2.19,0.0,,,,
20120406180000,2.493,2.189,0.0,,,,
20120406190000,2.492,2.185,0.0,,,,
20120406200000,2.49,2.185,0.0,,,,
20120406210000,2.49,2.181,0.0,,,,
20120406220000,2.487,2.179,0.0,,,,
20120406230000,2.485,2.179,0.0,,,,
20120407000000,2.484,2.176,0.0,,,,
20120407010000,2.484,2.177,0.0,,,,
20120407020000,2.485,2.177,0.0,,,,
20120407030000,2.488,2.18,0.0,,,,
20120407040000,2.49,2.18,0.0,,,,
20120407050000,2.489,2.178,0.0,,,,
20120407060000,2.488,2.175,0.0,,,,
20120407070000,2.488,2.177,0.0,,,,
20120407080000,2.491,2.18,0.0,,,,
20120407090000,2.495,2.183,0.0,,,,
20120407100000,2.493,2.183,0.0,,,,
20120407110000,2.494,2.184,0.0,,,,
20120407120000,2.497,2.184,0.0,,,,
20120407130000,2.497,2.187,0.0,,,,
20120407140000,2.499,2.19,0.0,,,,
20120407150000,2.498,2.188,0.0,,,,
20120407160000,2.498,2.189,0.0,,,,
20120407170000,2.495,2.185,0.0,,,,
20120407180000,2.494,2.185,0.0,,,,
20120407190000,2.492,2.183,0.0,,,,
20120407200000,2.493,2.183,0.0,,,,
20120407210000,2.489,2.181,0.0,,,,
20120407220000,2.489,2.179,0.0,,,,
20120407230000,2.487,2.178,0.0,,,,
20120408000000,2.487,2.177,0.0,,,,
20120408010000,2.485,2.175,0.0,,,,
20120408020000,2.484,2.174,0.0,,,,
20120408030000,2.482,2.173,0.0,,,,
20120408040000,2.482,2.171,0.0,,,,
20120408050000,2.481,2.169,0.0,,,,
20120408060000,2.48,2.168,0.0,,,,
20120408070000,2.482,2.171,0.0,,,,
20120408080000,2.491,2.174,0.0,,,,
20120408090000,2.492,2.178,0.0,,,,
20120408100000,2.494,2.179,0.0,,,,
20120408110000,2.496,2.181,0.0,,,,
20120408120000,2.496,2.184,0.0,,,,
20120408130000,2.499,2.186,0.0,,,,
20120408140000,2.5,2.188,0.0,,,,
20120408150000,2.502,2.192,0.0,,,,
20120408160000,2.502,2.191,0.0,,,,
20120408170000,2.499,2.189,0.0,,,,
20120408180000,2.496,2.19,0.0,,,,
20120408190000,2.492,2.185,0.0,,,,
20120408200000,2.491,2.182,0.0,,,,
20120408210000,2.491,2.181,0.0,,,,
20120408220000,2.489,2.18,0.0,,,,
20120408230000,2.488,2.178,0.0,,,,
20120409000000,2.495,2.185,0.0,,,,
20120409010000,2.491,2.179,0.0,,,,
20120409020000,2.49,2.181,0.0,,,,
20120409030000,2.493,2.182,0.0,,,,
20120409040000,2.491,2.181,0.0,,,,
20120409050000,2.493,2.183,0.0,,,,
20120409060000,2.496,2.184,0.0,,,,
20120409070000,2.496,2.184,0.0,,,,
20120409080000,2.503,2.191,0.0,,,,
20120409090000,2.507,2.195,0.0,,,,
20120409100000,2.513,2.2,0.0,,,,
20120409110000,2.513,2.203,0.0,,,,
20120409120000,2.51,2.206,0.0,,,,
20120409130000,2.508,2.207,0.0,,,,
20120409140000,2.507,2.21,0.0,,,,
20120409150000,2.504,2.208,0.0,,,,
20120409160000,2.512,2.205,0.0,,,,
20120409170000,2.514,2.205,0.0,,,,
20120409180000,2.511,2.204,0.0,,,,
20120409190000,2.509,2.204,0.0,,,,
20120409200000,2.511,2.202,0.0,,,,
20120409210000,2.508,2.201,0.0,,,,
20120409220000,2.508,2.199,0.0,,,,
20120409230000,2.503,2.194,0.0,,,,
20120410000000,2.501,2.192,0.0,,,,
20120410010000,2.498,2.191,0.0,,,,
20120410020000,2.495,2.188,0.0,,,,
20120410030000,2.494,2.187,0.0,,,,
20120410040000,2.493,2.185,0.0,,,,
20120410050000,2.491,2.187,0.0,,,,
20120410060000,2.491,2.181,0.0,,,,
20120410070000,2.492,2.183,0.0,,,,
20120410080000,2.5,2.189,0.0,,,,
20120410090000,2.504,2.192,0.0,,,,
20120410100000,2.505,2.195,0.0,,,,
20120410110000,2.507,2.197,0.0,,,,
20120410120000,2.509,2.201,0.0,,,,
20120410130000,2.512,2.203,0.0,,,,
20120410140000,2.511,2.204,0.0,,,,
20120410150000,2.511,2.202,0.0,,,,
20120410160000,2.509,2.202,0.0,,,,
20120410170000,2.509,2.203,0.0,,,,
20120410180000,2.507,2.203,0.0,,,,
20120410190000,2.504,2.2,0.0,,,,
20120410200000,2.502,2.196,0.0,,,,
20120410210000,2.501,2.193,0.0,,,,
20120410220000,2.502,2.193,0.0,,,,
20120410230000,2.501,2.195,0.0,,,,
20120411000000,2.5,2.192,0.0,,,,
20120411010000,2.499,2.194,0.0,,,,
20120411020000,2.5,2.193,0.0,,,,
20120411030000,2.5,2.193,0.0,,,,
20120411040000,2.498,2.193,0.0,,,,
20120411050000,2.501,2.194,0.0,,,,
20120411060000,2.502,2.194,0.0,,,,
20120411070000,2.502,2.196,0.0,,,,
20120411080000,2.507,2.198,0.0,,,,
20120411090000,2.508,2.199,0.0,,,,
20120411100000,2.511,2.205,0.0,,,,
20120411110000,2.517,2.207,0.0,,,,
20120411120000,2.515,2.21,0.0,,,,
20120411130000,2.512,2.21,0.0,,,,
20120411140000,2.516,2.209,0.0,,,,
20120411150000,2.515,2.209,0.0,,,,
20120411160000,2.511,2.205,0.0,,,,
20120411170000,2.508,2.204,0.5,,,,
20120411180000,2.509,2.203,0.0,,,,
20120411190000,2.504,2.2,0.0,,,,
20120411200000,2.494,2.188,1.0,,,,
20120411210000,2.482,2.18,0.5,,,,
20120411220000,2.481,2.177,0.5,,,,
20120411230000,2.482,2.176,0.0,,,,
20120412000000,2.483,2.178,0.0,,,,
20120412010000,2.481,2.179,0.0,,,,
20120412020000,2.482,2.179,0.0,,,,
20120412030000,2.482,2.179,0.0,,,,
20120412040000,2.48,2.176,0.0,,,,
20120412050000,2.482,2.179,0.0,,,,
20120412060000,2.48,2.175,0.0,,,,
20120412070000,2.483,2.179,0.0,,,,
20120412080000,2.485,2.181,0.0,,,,
20120412090000,2.491,2.185,0.0,,,,
20120412100000,2.498,2.193,0.0,,,,
20120412110000,2.504,2.197,0.0,,,,
20120412120000,2.507,2.203,0.0,,,,
20120412130000,2.51,2.205,0.0,,,,
20120412140000,2.505,2.204,0.0,,,,
20120412150000,2.506,2.205,0.0,,,,
20120412160000,2.507,2.203,0.0,,,,
20120412170000,2.505,2.203,0.0,,,,
20120412180000,2.505,2.2,0.0,,,,
20120412190000,2.501,2.198,0.0,,,,
20120412200000,2.499,2.193,0.0,,,,
20120412210000,2.499,2.193,0.0,,,,
20120412220000,2.5,2.194,0.0,,,,
20120412230000,2.5,2.196,0.0,,,,
20120413000000,2.501,2.197,0.0,,,,
20120413010000,2.499,2.193,0.0,,,,
20120413020000,2.493,2.19,0.0,,,,
20120413030000,2.491,2.186,1.5,,,,
20120413040000,2.489,2.186,0.5,,,,
20120413050000,2.489,2.181,0.0,,,,
20120413060000,2.49,2.187,0.0,,,,
20120413070000,2.49,2.184,0.0,,,,
20120413080000,2.496,2.189,0.0,,,,
20120413090000,2.503,2.195,0.0,,,,
20120413100000,2.506,2.199,0.0,,,,
20120413110000,2.51,2.203,0.0,,,,
20120413120000,2.511,2.204,0.0,,,,
20120413130000,2.51,2.207,0.0,,,,
20120413140000,2.505,2.205,0.0,,,,
20120413150000,2.506,2.204,0.0,,,,
20120413160000,2.507,2.203,0.0,,,,
20120413170000,2.508,2.201,0.0,,,,
20120413180000,2.506,2.201,0.0,,,,
20120413190000,2.502,2.197,0.0,,,,
20120413200000,2.501,2.195,0.0,,,,
20120413210000,2.501,2.194,0.0,,,,
20120413220000,2.501,2.195,0.0,,,,
20120413230000,2.5,2.194,0.0,,,,
20120414000000,2.501,2.192,0.0,,,,
20120414010000,2.5,2.192,0.0,,,,
20120414020000,2.498,2.192,0.0,,,,
20120414030000,2.498,2.191,0.0,,,,
20120414040000,2.498,2.192,0.0,,,,
20120414050000,2.499,2.191,0.0,,,,
20120414060000,2.499,2.193,0.0,,,,
20120414070000,2.498,2.192,0.0,,,,
20120414080000,2.486,2.181,0.5,,,,
20120414090000,2.469,2.166,1.0,,,,
20120414100000,2.453,2.152,1.5,,,,
20120414110000,2.446,2.145,1.5,,,,
20120414120000,2.442,2.142,1.0,,,,
20120414130000,2.44,2.139,1.0,,,,
20120414140000,2.435,2.135,1.0,,,,
20120414150000,2.429,2.129,1.0,,,,
20120414160000,2.425,2.124,1.0,,,,
20120414170000,2.421,2.123,0.5,,,,
20120414180000,2.423,2.123,0.5,,,,
20120414190000,2.425,2.127,0.0,,,,
20120414200000,2.427,2.126,0.0,,,,
20120414210000,2.427,2.127,0.0,,,,
20120414220000,2.428,2.126,0.0,,,,
20120414230000,2.429,2.128,0.0,,,,
20120415000000,2.428,2.127,0.0,,,,
20120415010000,2.429,2.127,0.0,,,,
20120415020000,2.429,2.127,0.0,,,,
20120415030000,2.432,2.128,0.0,,,,
20120415040000,2.431,2.129,0.0,,,,
20120415050000,2.432,2.128,0.0,,,,
20120415060000,2.433,2.128,0.0,,,,
20120415070000,2.435,2.13,0.0,,,,
20120415080000,2.44,2.134,0.0,,,,
20120415090000,2.442,2.137,0.0,,,,
20120415100000,2.445,2.14,0.0,,,,
20120415110000,2.449,2.146,0.0,,,,
20120415120000,2.455,2.151,0.0,,,,
20120415130000,2.46,2.154,0.0,,,,
20120415140000,2.464,2.16,0.0,,,,
20120415150000,2.464,2.161,0.0,,,,
20120415160000,2.465,2.162,0.0,,,,
20120415170000,2.463,2.162,0.0,,,,
20120415180000,2.463,2.16,0.0,,,,
20120415190000,2.461,2.157,0.0,,,,
20120415200000,2.459,2.154,0.0,,,,
20120415210000,2.457,2.152,0.0,,,,
20120415220000,2.456,2.151,0.0,,,,
20120415230000,2.454,2.15,0.0,,,,
20120416000000,2.454,2.15,0.0,,,,
20120416010000,2.454,2.15,0.0,,,,
20120416020000,2.453,2.148,0.0,,,,
20120416030000,2.452,2.148,0.0,,,,
20120416040000,2.452,2.148,0.0,,,,
20120416050000,2.453,2.146,0.0,,,,
20120416060000,2.453,2.147,0.0,,,,
20120416070000,2.456,2.149,0.0,,,,
20120416080000,2.462,2.155,0.0,,,,
20120416090000,2.466,2.159,0.0,,,,
20120416100000,2.468,2.159,0.0,,,,
20120416110000,2.472,2.162,0.0,,,,
20120416120000,2.474,2.167,0.0,,,,
20120416130000,2.477,2.17,0.0,,,,
20120416140000,2.474,2.172,0.0,,,,
20120416150000,2.476,2.172,0.0,,,,
20120416160000,2.477,2.173,0.0,,,,
20120416170000,2.476,2.172,0.0,,,,
20120416180000,2.475,2.17,0.0,,,,
20120416190000,2.473,2.169,0.0,,,,
20120416200000,2.472,2.167,0.0,,,,
20120416210000,2.471,2.166,0.0,,,,
20120416220000,2.47,2.164,0.0,,,,
20120416230000,2.47,2.164,0.0,,,,
20120417000000,2.469,2.166,0.0,,,,
20120417010000,2.469,2.166,0.0,,,,
20120417020000,2.466,2.163,0.0,,,,
20120417030000,2.467,2.164,0.0,,,,
20120417040000,2.467,2.162,0.0,,,,
20120417050000,2.466,2.161,0.0,,,,
20120417060000,2.466,2.159,0.0,,,,
20120417070000,2.47,2.161,0.0,,,,
20120417080000,2.471,2.166,0.0,,,,
20120417090000,2.474,2.168,0.0,,,,
20120417100000,2.476,2.169,0.0,,,,
20120417110000,2.476,2.171,0.0,,,,
20120417120000,2.481,2.175,0.0,,,,
20120417130000,2.481,2.177,0.0,,,,
20120417140000,2.478,2.174,0.0,,,,
20120417150000,2.473,2.172,0.0,,,,
20120417160000,2.461,2.157,2.0,,,,
20120417170000,2.456,2.15,0.0,,,,
20120417180000,2.45,2.148,0.0,,,,
20120417190000,2.45,2.146,0.0,,,,
20120417200000,2.448,2.147,0.0,,,,
20120417210000,2.447,2.143,0.0,,,,
20120417220000,2.444,2.142,0.0,,,,
20120417230000,2.443,2.139,0.0,,,,
20120418000000,2.443,2.142,0.0,,,,
20120418010000,2.442,2.139,0.0,,,,
20120418020000,2.44,2.137,0.0,,,,
20120418030000,2.44,2.139,0.0,,,,
20120418040000,2.44,2.137,0.0,,,,
20120418050000,2.443,2.139,0.0,,,,
20120418060000,2.443,2.139,0.0,,,,
20120418070000,2.445,2.14,0.0,,,,
20120418080000,2.45,2.144,0.0,,,,
20120418090000,2.454,2.149,0.0,,,,
20120418100000,2.456,2.152,0.0,,,,
20120418110000,2.463,2.157,0.0,,,,
20120418120000,2.47,2.166,0.0,,,,
20120418130000,2.472,2.167,0.0,,,,
20120418140000,2.467,2.17,0.0,,,,
20120418150000,2.468,2.171,0.0,,,,
20120418160000,2.47,2.168,0.0,,,,
20120418170000,2.47,2.167,0.0,,,,
20120418180000,2.469,2.167,0.0,,,,
20120418190000,2.466,2.165,0.0,,,,
20120418200000,2.467,2.163,0.0,,,,
20120418210000,2.467,2.164,0.0,,,,
20120418220000,2.467,2.164,0.0,,,,
20120418230000,2.467,2.162,0.0,,,,
20120419000000,2.466,2.163,0.0,,,,
20120419010000,2.466,2.16,0.0,,,,
20120419020000,2.464,2.159,0.0,,,,
20120419030000,2.463,2.157,0.0,,,,
20120419040000,2.463,2.158,0.0,,,,
20120419050000,2.462,2.158,0.0,,,,
20120419060000,2.464,2.16,0.0,,,,
20120419070000,2.464,2.16,0.0,,,,
20120419080000,2.466,2.161,0.0,,,,
20120419090000,2.467,2.163,0.0,,,,
20120419100000,2.468,2.163,0.0,,,,
20120419110000,2.47,2.166,0.0,,,,
20120419120000,2.472,2.165,0.0,,,,
20120419130000,2.471,2.167,0.0,,,,
20120419140000,2.471,2.17,0.0,,,,
20120419150000,2.474,2.167,0.0,,,,
20120419160000,2.473,2.168,0.0,,,,
20120419170000,2.472,2.165,0.0,,,,
20120419180000,2.47,2.166,0.0,,,,
20120419190000,2.467,2.164,0.0,,,,
20120419200000,2.467,2.163,0.0,,,,
20120419210000,2.466,2.161,0.0,,,,
20120419220000,2.465,2.161,0.0,,,,
20120419230000,2.464,2.158,0.0,,,,
20120420000000,2.461,2.159,0.0,,,,
20120420010000,2.463,2.159,0.0,,,,
20120420020000,2.464,2.158,0.0,,,,
20120420030000,2.462,2.157,0.0,,,,
20120420040000,2.463,2.157,0.0,,,,
20120420050000,2.463,2.158,0.0,,,,
20120420060000,2.461,2.156,0.0,,,,
20120420070000,2.463,2.158,0.0,,,,
20120420080000,2.464,2.159,0.0,,,,
20120420090000,2.465,2.16,0.0,,,,
20120420100000,2.465,2.161,0.0,,,,
20120420110000,2.467,2.161,0.0,,,,
20120420120000,2.466,2.162,0.0,,,,
20120420130000,2.465,2.161,0.0,,,,
20120420140000,2.467,2.161,0.0,,,,
20120420150000,2.467,2.161,0.0,,,,
20120420160000,2.468,2.162,0.0,,,,
20120420170000,2.466,2.161,0.0,,,,
20120420180000,2.466,2.159,0.0,,,,
20120420190000,2.464,2.161,0.0,,,,
20120420200000,2.464,2.159,0.0,,,,
20120420210000,2.463,2.16,0.0,,,,
20120420220000,2.462,2.159,0.0,,,,
20120420230000,2.463,2.158,0.0,,,,
20120421000000,2.463,2.157,0.0,,,,
20120421010000,2.463,2.16,0.0,,,,
20120421020000,2.463,2.159,0.0,,,,
20120421030000,2.462,2.156,0.0,,,,
20120421040000,2.462,2.157,0.0,,,,
20120421050000,2.462,2.155,0.0,,,,
20120421060000,2.46,2.156,0.0,,,,
20120421070000,2.461,2.157,0.0,,,,
20120421080000,2.463,2.157,0.0,,,,
20120421090000,2.464,2.158,0.0,,,,
20120421100000,2.464,2.158,0.0,,,,
20120421110000,2.465,2.159,0.0,,,,
20120421120000,2.466,2.158,0.0,,,,
20120421130000,2.469,2.161,0.0,,,,
20120421140000,2.468,2.164,0.0,,,,
20120421150000,2.469,2.163,0.0,,,,
20120421160000,2.469,2.164,0.0,,,,
20120421170000,2.468,2.164,0.0,,,,
20120421180000,2.468,2.163,0.0,,,,
20120421190000,2.466,2.16,0.0,,,,
20120421200000,2.464,2.159,0.0,,,,
20120421210000,2.461,2.156,0.0,,,,
20120421220000,2.462,2.157,0.0,,,,
20120421230000,2.464,2.158,0.0,,,,
20120422000000,2.463,2.157,0.0,,,,
20120422010000,2.461,2.158,0.0,,,,
20120422020000,2.462,2.155,0.0,,,,
20120422030000,2.462,2.154,0.0,,,,
20120422040000,2.462,2.155,0.0,,,,
20120422050000,2.461,2.155,0.0,,,,
20120422060000,2.459,2.155,0.0,,,,
20120422070000,2.461,2.156,0.0,,,,
20120422080000,2.464,2.158,0.0,,,,
20120422090000,2.464,2.159,0.0,,,,
20120422100000,2.466,2.161,0.0,,,,
20120422110000,2.467,2.159,0.0,,,,
20120422120000,2.47,2.159,0.0,,,,
20120422130000,2.469,2.163,0.0,,,,
20120422140000,2.47,2.167,0.0,,,,
20120422150000,2.47,2.165,0.0,,,,
20120422160000,2.47,2.166,0.0,,,,
20120422170000,2.469,2.164,0.0,,,,
20120422180000,2.47,2.164,0.0,,,,
20120422190000,2.469,2.162,0.0,,,,
20120422200000,2.468,2.163,0.0,,,,
20120422210000,2.468,2.165,0.0,,,,
20120422220000,2.467,2.163,0.0,,,,
20120422230000,2.465,2.162,0.0,,,,
20120423000000,2.453,2.15,0.0,,,,
20120423010000,2.445,2.143,1.0,,,,
20120423020000,2.439,2.138,0.0,,,,
20120423030000,2.426,2.127,1.0,,,,
20120423040000,2.419,2.12,1.0,,,,
20120423050000,2.42,2.119,0.0,,,,
20120423060000,2.424,2.123,0.0,,,,
20120423070000,2.426,2.127,0.0,,,,
20120423080000,2.431,2.129,0.0,,,,
20120423090000,2.435,2.135,0.0,,,,
20120423100000,2.439,2.136,0.0,,,,
20120423110000,2.444,2.14,0.5,,,,
20120423120000,2.449,2.145,0.0,,,,
20120423130000,2.454,2.151,0.0,,,,
20120423140000,2.448,2.148,0.0,,,,
20120423150000,2.446,2.146,0.0,,,,
20120423160000,2.45,2.147,0.0,,,,
20120423170000,2.451,2.15,0.0,,,,
20120423180000,2.449,2.148,0.0,,,,
20120423190000,2.449,2.148,0.0,,,,
20120423200000,2.446,2.145,1.0,,,,
20120423210000,2.42,2.123,1.5,,,,
20120423220000,2.414,2.117,0.0,,,,
20120423230000,2.417,2.117,0.5,,,,
20120424000000,2.409,2.111,0.0,,,,
20120424010000,2.412,2.115,0.0,,,,
20120424020000,2.415,2.116,0.5,,,,
20120424030000,2.417,2.117,0.0,,,,
20120424040000,2.416,2.115,0.0,,,,
20120424050000,2.416,2.117,0.0,,,,
20120424060000,2.416,2.118,0.0,,,,
20120424070000,2.418,2.121,0.0,,,,
20120424080000,2.425,2.124,0.0,,,,
20120424090000,2.432,2.133,0.0,,,,
20120424100000,2.438,2.138,0.0,,,,
20120424110000,2.442,2.144,0.0,,,,
20120424120000,2.443,2.148,0.0,,,,
20120424130000,2.444,2.154,0.0,,,,
20120424140000,2.443,2.156,0.0,,,,
20120424150000,2.44,2.155,0.0,,,,
20120424160000,2.439,2.157,0.0,,,,
20120424170000,2.439,2.154,0.0,,,,
20120424180000,2.448,2.152,0.0,,,,
20120424190000,2.45,2.15,0.0,,,,
20120424200000,2.452,2.148,0.0,,,,
20120424210000,2.449,2.148,0.0,,,,
20120424220000,2.448,2.146,0.0,,,,
20120424230000,2.445,2.148,0.0,,,,
20120425000000,2.446,2.144,0.0,,,,
20120425010000,2.444,2.144,0.0,,,,
20120425020000,2.444,2.145,0.0,,,,
20120425030000,2.441,2.143,0.0,,,,
20120425040000,2.441,2.139,0.0,,,,
20120425050000,2.441,2.139,0.0,,,,
20120425060000,2.442,2.139,0.0,,,,
20120425070000,2.443,2.143,0.0,,,,
20120425080000,2.447,2.146,0.0,,,,
20120425090000,2.449,2.148,0.0,,,,
20120425100000,2.451,2.15,0.0,,,,
20120425110000,2.455,2.153,0.0,,,,
20120425120000,2.455,2.155,0.0,,,,
20120425130000,2.454,2.153,0.0,,,,
20120425140000,2.453,2.151,0.0,,,,
20120425150000,2.454,2.152,0.0,,,,
20120425160000,2.453,2.151,0.0,,,,
20120425170000,2.452,2.149,0.0,,,,
20120425180000,2.452,2.15,0.0,,,,
20120425190000,2.452,2.151,0.0,,,,
20120425200000,2.452,2.149,0.0,,,,
20120425210000,2.451,2.148,0.0,,,,
20120425220000,2.45,2.148,0.0,,,,
20120425230000,2.449,2.146,0.0,,,,
20120426000000,2.449,2.148,0.0,,,,
20120426010000,2.449,2.146,0.0,,,,
20120426020000,2.447,2.148,0.0,,,,
20120426030000,2.449,2.146,0.0,,,,
20120426040000,2.449,2.148,0.0,,,,
20120426050000,2.448,2.145,0.0,,,,
20120426060000,2.448,2.146,0.0,,,,
20120426070000,2.448,2.148,0.0,,,,
20120426080000,2.45,2.148,0.0,,,,
20120426090000,2.452,2.149,0.0,,,,
20120426100000,2.455,2.152,0.0,,,,
20120426110000,2.457,2.153,0.0,,,,
20120426120000,2.459,2.154,0.0,,,,
20120426130000,2.458,2.157,0.0,,,,
20120426140000,2.46,2.157,0.0,,,,
20120426150000,2.461,2.159,0.0,,,,
20120426160000,2.457,2.159,0.0,,,,
20120426170000,2.459,2.159,0.0,,,,
20120426180000,2.458,2.157,0.0,,,,
20120426190000,2.458,2.155,0.0,,,,
20120426200000,2.458,2.154,0.0,,,,
20120426210000,2.457,2.153,0.0,,,,
20120426220000,2.457,2.155,0.0,,,,
20120426230000,2.45,2.149,0.0,,,,
20120427000000,2.441,2.14,0.5,,,,
20120427010000,2.434,2.134,0.5,,,,
20120427020000,2.429,2.13,0.5,,,,
20120427030000,2.417,2.12,2.0,,,,
20120427040000,2.409,2.111,0.5,,,,
20120427050000,2.403,2.105,1.0,,,,
20120427060000,2.399,2.102,0.5,,,,
20120427070000,2.394,2.098,0.0,,,,
20120427080000,2.389,2.094,1.5,,,,
20120427090000,2.388,2.095,0.5,,,,
20120427100000,2.392,2.095,0.5,,,,
20120427110000,2.385,2.094,0.0,,,,
20120427120000,2.388,2.091,0.0,,,,
20120427130000,2.39,2.092,0.5,,,,
20120427140000,2.394,2.098,0.0,,,,
20120427150000,2.397,2.101,0.0,,,,
20120427160000,2.395,2.1,0.0,,,,
20120427170000,2.398,2.102,0.0,,,,
20120427180000,2.4,2.105,0.0,,,,
20120427190000,2.399,2.105,0.0,,,,
20120427200000,2.399,2.103,0.0,,,,
20120427210000,2.399,2.104,0.0,,,,
20120427220000,2.393,2.096,0.0,,,,
20120427230000,2.391,2.096,0.0,,,,
20120428000000,2.391,2.096,0.5,,,,
20120428010000,2.392,2.095,0.0,,,,
20120428020000,2.391,2.095,0.0,,,,
20120428030000,2.39,2.096,0.0,,,,
20120428040000,2.392,2.095,0.0,,,,
20120428050000,2.392,2.095,0.0,,,,
20120428060000,2.392,2.095,0.0,,,,
20120428070000,2.394,2.096,0.0,,,,
20120428080000,2.396,2.098,0.0,,,,
20120428090000,2.398,2.1,0.0,,,,
20120428100000,2.404,2.104,0.0,,,,
20120428110000,2.409,2.112,0.0,,,,
20120428120000,2.416,2.118,0.0,,,,
20120428130000,2.422,2.122,0.0,,,,
20120428140000,2.424,2.125,0.0,,,,
20120428150000,2.423,2.129,0.0,,,,
20120428160000,2.422,2.13,0.0,,,,
20120428170000,2.422,2.13,0.0,,,,
20120428180000,2.421,2.129,0.0,,,,
20120428190000,2.423,2.126,0.0,,,,